SBI2154 URMO-UUDD

Flight info

Callsign SBI2154
Flight time 2h 35m
Altitude 35000
Route GORAK G914 KZ DCT VULFI DCT TUVGI DCT EVZUN DCT ZIZAR DCT VAZLU DCT UZZID DCT NOKLI N72 WGD G481 OBABI T619 IVNIL/K0857F360 T619 UMRAL P163 LADIM P163 GOLRI L736 OLOPI
Aircraft B738/M-SDE2E3FGHIRWXY/LB1

Departure

Time 2026-05-04 06:05
Airport Vladikavkaz Beslan International Airport (URMO)

Arrival

Time 2026-05-04 08:40
Airport Domodedovo International Airport (UUDD)
Time Latitude Longitude Altitude Speed Heading
2026-05-04 05:15 43.20277 44.60357 1685 ft 0 kts 213°
2026-05-04 05:52 43.20283 44.60362 1684 ft 4 kts 222°
2026-05-04 05:52 43.20301 44.60387 1681 ft 4 kts 225°
2026-05-04 05:53 43.20314 44.60416 1681 ft 4 kts 264°
2026-05-04 05:54 43.20306 44.60491 1681 ft 0 kts 285°
2026-05-04 05:55 43.20306 44.60493 1681 ft 1 kts 285°
2026-05-04 05:56 43.20305 44.60499 1682 ft 0 kts 285°
2026-05-04 05:58 43.20309 44.60497 1681 ft 1 kts 337°
2026-05-04 05:58 43.20334 44.60499 1681 ft 7 kts 11°
2026-05-04 05:58 43.20386 44.60513 1680 ft 8 kts 11°
2026-05-04 05:59 43.20437 44.60527 1683 ft 8 kts 11°
2026-05-04 05:59 43.20500 44.60545 1677 ft 11 kts 11°
2026-05-04 05:59 43.20549 44.60480 1681 ft 11 kts 281°
2026-05-04 05:59 43.20564 44.60376 1682 ft 11 kts 281°
2026-05-04 06:00 43.20580 44.60267 1681 ft 13 kts 281°
2026-05-04 06:00 43.20603 44.60115 1672 ft 19 kts 281°
2026-05-04 06:00 43.20632 44.59921 1683 ft 22 kts 282°
2026-05-04 06:00 43.20663 44.59715 1684 ft 22 kts 282°
2026-05-04 06:01 43.20692 44.59514 1676 ft 21 kts 281°
2026-05-04 06:01 43.20721 44.59317 1682 ft 21 kts 281°
2026-05-04 06:03 43.20770 44.58991 1667 ft 0 kts 102°
2026-05-04 06:05 43.19665 44.66547 3611 ft 191 kts 101°
2026-05-04 06:05 43.19148 44.69986 5109 ft 195 kts 101°
2026-05-04 06:05 43.18855 44.71911 5289 ft 216 kts 103°
2026-05-04 06:06 43.18523 44.74021 5503 ft 235 kts 103°
2026-05-04 06:06 43.17773 44.76019 5963 ft 243 kts 135°
2026-05-04 06:06 43.16257 44.77179 6362 ft 261 kts 166°
2026-05-04 06:06 43.14418 44.77190 7065 ft 271 kts 192°
2026-05-04 06:07 43.12722 44.76051 7878 ft 277 kts 219°
2026-05-04 06:07 43.11591 44.73907 8588 ft 284 kts 249°
2026-05-04 06:07 43.11283 44.71229 9316 ft 289 kts 268°
2026-05-04 06:07 43.11241 44.68460 10088 ft 291 kts 267°
2026-05-04 06:08 43.11171 44.65695 10874 ft 291 kts 265°
2026-05-04 06:08 43.11073 44.62930 11672 ft 290 kts 264°
2026-05-04 06:08 43.11022 44.60189 12567 ft 288 kts 272°
2026-05-04 06:08 43.11378 44.57532 13401 ft 288 kts 278°
2026-05-04 06:09 43.11827 44.54795 13975 ft 295 kts 281°
2026-05-04 06:09 43.12744 44.52267 14550 ft 309 kts 307°
2026-05-04 06:11 43.25283 44.58092 17596 ft 378 kts 58°
2026-05-04 06:11 43.26767 44.61163 17732 ft 395 kts 58°
2026-05-04 06:13 43.38665 44.85269 19789 ft 453 kts 57°
2026-05-04 06:14 43.48907 45.07565 22104 ft 464 kts 81°
2026-05-04 06:14 43.49179 45.11957 22504 ft 460 kts 95°
2026-05-04 06:15 43.48700 45.16285 22883 ft 456 kts 107°
2026-05-04 06:15 43.47880 45.20451 23193 ft 458 kts 108°
2026-05-04 06:15 43.47044 45.24703 23493 ft 461 kts 108°
2026-05-04 06:15 43.46243 45.28983 23802 ft 463 kts 107°
2026-05-04 06:16 43.45460 45.33293 24112 ft 465 kts 107°
2026-05-04 06:16 43.44683 45.37628 24426 ft 467 kts 107°
2026-05-04 06:16 43.43903 45.41979 24731 ft 468 kts 107°
2026-05-04 06:16 43.43118 45.46335 24996 ft 471 kts 107°
2026-05-04 06:17 43.42325 45.50712 25281 ft 473 kts 107°
2026-05-04 06:17 43.41525 45.55109 25578 ft 474 kts 107°
2026-05-04 06:17 43.40722 45.59510 25852 ft 476 kts 107°
2026-05-04 06:17 43.39930 45.63947 26099 ft 479 kts 104°
2026-05-04 06:18 43.39690 45.68546 26307 ft 488 kts 88°
2026-05-04 06:18 43.40355 45.73142 26581 ft 495 kts 73°
2026-05-04 06:18 43.41855 45.77418 26845 ft 499 kts 59°
2026-05-04 06:20 43.54576 46.05519 29076 ft 496 kts 60°
2026-05-04 06:20 43.56360 46.09574 29438 ft 494 kts 60°
2026-05-04 06:21 43.63459 46.25715 30683 ft 491 kts 60°
2026-05-04 06:21 43.65235 46.29736 30968 ft 491 kts 60°
2026-05-04 06:22 43.66995 46.33720 31269 ft 490 kts 60°
2026-05-04 06:22 43.68766 46.37737 31550 ft 489 kts 60°
2026-05-04 06:25 43.86799 46.92290 34657 ft 479 kts 81°
2026-05-04 06:25 43.87475 46.96817 34847 ft 479 kts 81°
2026-05-04 06:26 43.88130 47.01139 34924 ft 481 kts 80°
2026-05-04 06:26 43.89521 47.10216 34924 ft 480 kts 80°
2026-05-04 06:27 43.92960 47.32712 34929 ft 474 kts 80°
2026-05-04 06:28 43.94307 47.41632 34924 ft 475 kts 80°
2026-05-04 06:28 43.95654 47.50604 34927 ft 475 kts 80°
2026-05-04 06:29 43.96997 47.59601 34927 ft 477 kts 80°
2026-05-04 06:29 43.98338 47.68624 34933 ft 478 kts 80°
2026-05-04 06:30 43.99675 47.77678 34934 ft 478 kts 80°
2026-05-04 06:30 44.01003 47.86714 34937 ft 479 kts 80°
2026-05-04 06:31 44.02327 47.95798 34940 ft 480 kts 80°
2026-05-04 06:31 44.03618 48.04711 34933 ft 480 kts 80°
2026-05-04 06:33 44.08291 48.41307 34934 ft 483 kts 88°
2026-05-04 06:34 44.08679 48.50668 34932 ft 486 kts 88°
2026-05-04 06:34 44.09101 48.60059 34932 ft 487 kts 87°
2026-05-04 06:36 44.12406 48.97250 34949 ft 487 kts 55°
2026-05-04 06:37 44.14506 49.00693 34918 ft 485 kts 40°
2026-05-04 06:37 44.17217 49.03332 34936 ft 481 kts 24°
2026-05-04 06:37 44.20339 49.04917 34922 ft 476 kts
2026-05-04 06:37 44.23605 49.05348 34941 ft 470 kts 355°
2026-05-04 06:38 44.26810 49.04715 34923 ft 463 kts 340°
2026-05-04 06:38 44.29820 49.03161 34948 ft 460 kts 334°
2026-05-04 06:40 44.53521 48.89073 34931 ft 465 kts 334°
2026-05-04 06:40 44.59493 48.85579 34938 ft 466 kts 334°
2026-05-04 06:41 44.65484 48.82068 34941 ft 466 kts 334°
2026-05-04 06:41 44.71461 48.78552 34945 ft 466 kts 334°
2026-05-04 06:42 44.77447 48.75026 34948 ft 466 kts 334°
2026-05-04 06:44 45.01286 48.60882 34954 ft 465 kts 333°
2026-05-04 06:44 45.07210 48.57353 34957 ft 464 kts 333°
2026-05-04 06:45 45.13165 48.53793 34959 ft 464 kts 333°
2026-05-04 06:45 45.19112 48.50228 34963 ft 464 kts 333°
2026-05-04 06:46 45.25062 48.46657 34961 ft 463 kts 333°
2026-05-04 06:46 45.31006 48.43078 34971 ft 463 kts 333°
2026-05-04 06:48 45.54731 48.28720 34984 ft 465 kts 333°
2026-05-04 06:50 45.78580 48.14148 34993 ft 467 kts 333°
2026-05-04 06:51 45.84557 48.10478 34986 ft 467 kts 333°
2026-05-04 06:51 45.90497 48.06819 34986 ft 467 kts 333°
2026-05-04 06:52 45.96468 48.03131 35000 ft 467 kts 333°
2026-05-04 06:52 46.02282 47.99532 35003 ft 467 kts 333°
2026-05-04 06:53 46.07857 47.94928 35002 ft 457 kts 315°
2026-05-04 06:53 46.11946 47.88096 35001 ft 447 kts 299°
2026-05-04 06:54 46.15271 47.80524 35006 ft 447 kts 298°
2026-05-04 06:54 46.18607 47.72998 34986 ft 448 kts 299°
2026-05-04 06:55 46.21999 47.65456 34983 ft 448 kts 299°
2026-05-04 06:55 46.25386 47.57918 35000 ft 447 kts 299°
2026-05-04 06:57 46.38245 47.29084 34982 ft 443 kts 298°
2026-05-04 06:58 46.42108 47.20359 34992 ft 442 kts 298°
2026-05-04 06:58 46.44886 47.14068 34994 ft 441 kts 298°
2026-05-04 06:59 46.48167 47.06627 35006 ft 440 kts 298°
2026-05-04 06:59 46.51378 46.99319 34993 ft 439 kts 297°
2026-05-04 07:01 46.64433 46.69416 34997 ft 436 kts 297°
2026-05-04 07:02 46.67664 46.61962 34996 ft 435 kts 297°
2026-05-04 07:02 46.70867 46.54556 35002 ft 434 kts 297°
2026-05-04 07:03 46.74079 46.47109 35003 ft 434 kts 297°
2026-05-04 07:03 46.77284 46.39659 34997 ft 433 kts 297°
2026-05-04 07:04 46.80482 46.32198 35008 ft 433 kts 297°
2026-05-04 07:04 46.83673 46.24741 35010 ft 433 kts 297°
2026-05-04 07:05 46.86855 46.17285 35010 ft 433 kts 297°
2026-05-04 07:05 46.90046 46.09804 35022 ft 434 kts 298°
2026-05-04 07:06 46.94237 46.03293 35022 ft 448 kts 317°
2026-05-04 07:06 46.96825 46.00799 35013 ft 456 kts 327°
2026-05-04 07:07 47.02467 45.96853 35016 ft 458 kts 329°
2026-05-04 07:09 47.25511 45.80861 35027 ft 458 kts 328°
2026-05-04 07:09 47.31248 45.76804 35029 ft 457 kts 328°
2026-05-04 07:10 47.36990 45.72738 35026 ft 457 kts 328°
2026-05-04 07:12 47.59850 45.56447 35032 ft 456 kts 327°
2026-05-04 07:12 47.65564 45.52350 35040 ft 456 kts 327°
2026-05-04 07:13 47.71281 45.48243 35043 ft 456 kts 327°
2026-05-04 07:13 47.76960 45.44153 35048 ft 456 kts 327°
2026-05-04 07:14 47.86672 45.32925 35039 ft 440 kts 310°
2026-05-04 07:14 47.88912 45.29823 35043 ft 440 kts 311°
2026-05-04 07:15 47.93441 45.23632 35054 ft 441 kts 311°
2026-05-04 07:15 47.97978 45.17467 35055 ft 441 kts 311°
2026-05-04 07:16 48.02531 45.11308 35057 ft 444 kts 313°
2026-05-04 07:16 48.07595 45.05977 35056 ft 450 kts 320°
2026-05-04 07:17 48.12849 45.00858 35058 ft 450 kts 320°
2026-05-04 07:17 48.17976 44.95788 35069 ft 450 kts 320°
2026-05-04 07:18 48.23169 44.90572 35066 ft 449 kts 319°
2026-05-04 07:18 48.28364 44.85322 35066 ft 449 kts 319°
2026-05-04 07:19 48.33539 44.80080 35063 ft 448 kts 319°
2026-05-04 07:19 48.38707 44.74834 35074 ft 448 kts 319°
2026-05-04 07:20 48.43836 44.69615 35072 ft 447 kts 319°
2026-05-04 07:20 48.48990 44.64359 35076 ft 447 kts 319°
2026-05-04 07:22 48.69550 44.43247 35085 ft 445 kts 321°
2026-05-04 07:23 48.74660 44.37964 35075 ft 443 kts 321°
2026-05-04 07:23 48.79966 44.33188 35064 ft 449 kts 333°
2026-05-04 07:24 48.85833 44.29902 35070 ft 449 kts 335°
2026-05-04 07:24 48.91705 44.26673 35068 ft 448 kts 335°
2026-05-04 07:26 49.15040 44.13417 35073 ft 449 kts 334°
2026-05-04 07:27 49.20907 44.10048 35072 ft 450 kts 334°
2026-05-04 07:27 49.26789 44.06662 35078 ft 451 kts 334°
2026-05-04 07:28 49.32675 44.03270 35068 ft 452 kts 334°
2026-05-04 07:28 49.38498 43.99905 35074 ft 453 kts 334°
2026-05-04 07:29 49.44368 43.96504 35076 ft 452 kts 335°
2026-05-04 07:29 49.50250 43.93085 35072 ft 452 kts 335°
2026-05-04 07:30 49.55879 43.89020 35079 ft 448 kts 327°
2026-05-04 07:30 49.61332 43.84337 35076 ft 448 kts 326°
2026-05-04 07:31 49.66769 43.79646 35073 ft 448 kts 327°
2026-05-04 07:33 49.85880 43.63466 35227 ft 446 kts 327°
2026-05-04 07:33 49.88608 43.61152 35323 ft 446 kts 327°
2026-05-04 07:33 49.91338 43.58831 35426 ft 447 kts 327°
2026-05-04 07:33 49.94065 43.56508 35526 ft 448 kts 327°
2026-05-04 07:34 49.96803 43.54176 35627 ft 449 kts 327°
2026-05-04 07:34 49.99547 43.51834 35722 ft 449 kts 327°
2026-05-04 07:34 50.05016 43.47161 35923 ft 450 kts 328°
2026-05-04 07:35 50.10454 43.42503 36066 ft 444 kts 328°
2026-05-04 07:35 50.15881 43.37836 36078 ft 447 kts 328°
2026-05-04 07:36 50.21306 43.33158 36084 ft 449 kts 328°
2026-05-04 07:38 50.43226 43.14151 36066 ft 449 kts 328°
2026-05-04 07:38 50.48681 43.09389 36062 ft 447 kts 328°
2026-05-04 07:39 50.54115 43.04630 36061 ft 447 kts 329°
2026-05-04 07:39 50.59482 42.99919 36065 ft 446 kts 329°
2026-05-04 07:40 50.64827 42.95213 36069 ft 445 kts 329°
2026-05-04 07:40 50.70268 42.90551 36061 ft 446 kts 334°
2026-05-04 07:41 50.76060 42.87191 36065 ft 446 kts 339°
2026-05-04 07:41 50.81942 42.84043 36067 ft 446 kts 339°
2026-05-04 07:42 50.87807 42.80846 36063 ft 445 kts 339°
2026-05-04 07:42 50.93658 42.77591 36067 ft 445 kts 339°
2026-05-04 07:43 50.99499 42.74311 36065 ft 446 kts 339°
2026-05-04 07:43 51.05300 42.71039 36069 ft 445 kts 339°
2026-05-04 07:44 51.11146 42.67736 36069 ft 446 kts 339°
2026-05-04 07:44 51.16044 42.64966 36067 ft 446 kts 339°
2026-05-04 07:45 51.21856 42.61671 36061 ft 446 kts 339°
2026-05-04 07:45 51.27704 42.58347 36048 ft 446 kts 339°
2026-05-04 07:46 51.33555 42.55005 36044 ft 446 kts 339°
2026-05-04 07:46 51.39401 42.51660 36044 ft 446 kts 339°
2026-05-04 07:47 51.45232 42.48315 36047 ft 444 kts 339°
2026-05-04 07:49 51.68456 42.34904 36031 ft 443 kts 340°
2026-05-04 07:49 51.74264 42.31525 36027 ft 443 kts 340°
2026-05-04 07:50 51.80061 42.28146 36028 ft 443 kts 340°
2026-05-04 07:50 51.85863 42.24758 36027 ft 443 kts 340°
2026-05-04 07:51 51.91664 42.21357 36034 ft 443 kts 340°
2026-05-04 07:51 51.97464 42.17946 36044 ft 443 kts 340°
2026-05-04 07:52 52.03250 42.14534 36045 ft 443 kts 340°
2026-05-04 07:52 52.09003 42.11132 36042 ft 443 kts 340°
2026-05-04 07:54 52.32277 41.98257 36045 ft 444 kts 341°
2026-05-04 07:55 52.38245 41.95727 36036 ft 445 kts 353°
2026-05-04 07:55 52.44441 41.95712 36046 ft 446 kts
2026-05-04 07:56 52.50602 41.96172 36036 ft 445 kts
2026-05-04 07:56 52.56787 41.96549 36041 ft 445 kts
2026-05-04 07:57 52.62973 41.96877 36047 ft 444 kts
2026-05-04 07:57 52.69132 41.96546 36030 ft 442 kts 345°
2026-05-04 07:58 52.72032 41.94916 36043 ft 441 kts 334°
2026-05-04 07:58 52.74680 41.92372 36035 ft 441 kts 322°
2026-05-04 07:58 52.79424 41.85947 36026 ft 442 kts 320°
2026-05-04 07:59 52.84150 41.79442 36010 ft 442 kts 321°
2026-05-04 07:59 52.88897 41.72978 36008 ft 443 kts 321°
2026-05-04 08:00 52.93684 41.66491 36007 ft 443 kts 321°
2026-05-04 08:02 53.12717 41.40541 36008 ft 443 kts 321°
2026-05-04 08:02 53.17470 41.34012 36001 ft 442 kts 321°
2026-05-04 08:03 53.22361 41.27813 35991 ft 442 kts 330°
2026-05-04 08:03 53.28036 41.23885 36010 ft 442 kts 342°
2026-05-04 08:04 53.33939 41.20984 35995 ft 442 kts 343°
2026-05-04 08:04 53.39836 41.18052 35997 ft 442 kts 342°
2026-05-04 08:05 53.45723 41.15052 35998 ft 442 kts 342°
2026-05-04 08:05 53.51562 41.12047 36000 ft 442 kts 342°
2026-05-04 08:06 53.57436 41.09017 36000 ft 442 kts 342°
2026-05-04 08:06 53.63317 41.05976 35999 ft 442 kts 342°
2026-05-04 08:08 53.76255 40.80012 35992 ft 442 kts 294°
2026-05-04 08:08 53.77451 40.75215 35987 ft 442 kts 294°
2026-05-04 08:10 53.87234 40.36851 35169 ft 441 kts 294°
2026-05-04 08:11 53.88445 40.32069 34926 ft 441 kts 294°
2026-05-04 08:11 53.90845 40.22562 33852 ft 441 kts 294°
2026-05-04 08:11 53.92050 40.17776 33150 ft 442 kts 295°
2026-05-04 08:12 53.93257 40.12966 32434 ft 442 kts 295°
2026-05-04 08:12 53.94465 40.08147 31694 ft 443 kts 295°
2026-05-04 08:12 53.95672 40.03318 30928 ft 445 kts 295°
2026-05-04 08:12 53.96824 39.98700 30177 ft 446 kts 296°
2026-05-04 08:13 53.98032 39.93844 29358 ft 447 kts 296°
2026-05-04 08:13 53.99244 39.88965 28480 ft 448 kts 296°
2026-05-04 08:13 54.00452 39.84098 27582 ft 450 kts 296°
2026-05-04 08:13 54.01666 39.79192 26633 ft 452 kts 296°
2026-05-04 08:14 54.02884 39.74254 25757 ft 452 kts 295°
2026-05-04 08:14 54.04091 39.69348 25032 ft 448 kts 295°
2026-05-04 08:14 54.05288 39.64469 24339 ft 444 kts 295°
2026-05-04 08:16 54.13318 39.31493 19581 ft 418 kts 295°
2026-05-04 08:16 54.14422 39.26922 18917 ft 414 kts 295°
2026-05-04 08:16 54.15510 39.22402 18339 ft 410 kts 294°
2026-05-04 08:17 54.16576 39.17967 18140 ft 397 kts 294°
2026-05-04 08:17 54.17637 39.13554 18034 ft 409 kts 294°
2026-05-04 08:17 54.18707 39.09090 17893 ft 400 kts 294°
2026-05-04 08:17 54.19737 39.04775 17749 ft 385 kts 294°
2026-05-04 08:19 54.29153 38.84701 16026 ft 297 kts 334°
2026-05-04 08:19 54.31034 38.83149 15412 ft 302 kts 334°
2026-05-04 08:20 54.32943 38.81561 14798 ft 307 kts 334°
2026-05-04 08:20 54.34850 38.79958 14192 ft 311 kts 334°
2026-05-04 08:20 54.36786 38.78319 13788 ft 309 kts 333°
2026-05-04 08:20 54.38695 38.76696 13550 ft 304 kts 333°
2026-05-04 08:21 54.40572 38.75093 13189 ft 299 kts 333°
2026-05-04 08:21 54.42431 38.73503 12673 ft 299 kts 333°
2026-05-04 08:21 54.44294 38.71909 12148 ft 299 kts 333°
2026-05-04 08:21 54.46150 38.70318 11685 ft 296 kts 333°
2026-05-04 08:22 54.47988 38.68742 11236 ft 294 kts 333°
2026-05-04 08:22 54.49812 38.67173 10760 ft 293 kts 333°
2026-05-04 08:24 54.61646 38.56936 9214 ft 266 kts 333°
2026-05-04 08:24 54.63307 38.55498 9026 ft 267 kts 332°
2026-05-04 08:24 54.64965 38.54055 8810 ft 267 kts 332°
2026-05-04 08:24 54.66622 38.52611 8620 ft 266 kts 332°
2026-05-04 08:25 54.68275 38.51172 8421 ft 266 kts 332°
2026-05-04 08:25 54.69926 38.49734 8197 ft 266 kts 332°
2026-05-04 08:25 54.71578 38.48291 7989 ft 266 kts 332°
2026-05-04 08:25 54.73235 38.46846 7756 ft 266 kts 332°
2026-05-04 08:26 54.74884 38.45414 7535 ft 264 kts 332°
2026-05-04 08:27 54.86033 38.35732 5869 ft 251 kts 332°
2026-05-04 08:28 54.87583 38.34367 5618 ft 249 kts 332°
2026-05-04 08:28 54.89127 38.33003 5355 ft 248 kts 331°
2026-05-04 08:28 54.90665 38.31653 5100 ft 247 kts 331°
2026-05-04 08:28 54.92193 38.30310 4857 ft 246 kts 331°
2026-05-04 08:29 54.93706 38.28969 4695 ft 242 kts 330°
2026-05-04 08:29 54.95201 38.27638 4544 ft 241 kts 330°
2026-05-04 08:29 54.96692 38.26330 4405 ft 239 kts 330°
2026-05-04 08:31 55.06515 38.17612 4032 ft 239 kts 329°
2026-05-04 08:33 55.17002 38.10913 4026 ft 231 kts 347°
2026-05-04 08:33 55.18584 38.10440 4005 ft 231 kts 346°
2026-05-04 08:35 55.27642 38.04610 3290 ft 170 kts 323°
2026-05-04 08:35 55.28633 38.03457 3163 ft 174 kts 322°
2026-05-04 08:35 55.29629 38.02188 2909 ft 179 kts 319°
2026-05-04 08:35 55.30639 38.00975 2664 ft 171 kts 323°
2026-05-04 08:37 55.36102 37.94453 1411 ft 152 kts 323°
2026-05-04 08:37 55.36972 37.93391 1206 ft 152 kts 324°
2026-05-04 08:37 55.37857 37.92327 980 ft 156 kts 324°
2026-05-04 08:38 55.38749 37.91232 767 ft 154 kts 322°
2026-05-04 08:38 55.39645 37.90170 567 ft 158 kts 322°
2026-05-04 08:38 55.40497 37.89136 569 ft 132 kts 326°
2026-05-04 08:40 55.41298 37.88552 578 ft 13 kts 146°
2026-05-04 08:40 55.41227 37.88638 578 ft 12 kts 145°
2026-05-04 08:40 55.41157 37.88723 578 ft 12 kts 145°
2026-05-04 08:41 55.41089 37.88805 576 ft 12 kts 145°
2026-05-04 08:41 55.41023 37.88885 580 ft 11 kts 146°
2026-05-04 08:41 55.40959 37.88961 575 ft 11 kts 146°
2026-05-04 08:41 55.40895 37.89036 578 ft 11 kts 146°
2026-05-04 08:42 55.40826 37.89120 572 ft 12 kts 146°
2026-05-04 08:42 55.40755 37.89205 573 ft 13 kts 146°
2026-05-04 08:42 55.40687 37.89287 570 ft 9 kts 144°
2026-05-04 08:42 55.40678 37.89382 567 ft 9 kts 52°
2026-05-04 08:43 55.40715 37.89472 567 ft 9 kts 54°
2026-05-04 08:43 55.40750 37.89561 571 ft 9 kts 54°
2026-05-04 08:43 55.40800 37.89614 568 ft 8 kts 34°
2026-05-04 08:43 55.40836 37.89692 568 ft 8 kts 54°
2026-05-04 08:44 55.40868 37.89773 567 ft 8 kts 56°
2026-05-04 08:44 55.40898 37.89854 566 ft 8 kts 57°
2026-05-04 08:46 55.41151 37.89876 574 ft 2 kts 79°
2026-05-04 08:46 55.41159 37.89895 574 ft 2 kts 42°
2026-05-04 08:46 55.41171 37.89912 574 ft 2 kts 41°
2026-05-04 08:46 55.41174 37.89918 571 ft 0 kts 41°